Location: Lane
(33.5226°N, 79.8788°W)
Time: 15:53:07
(UTC+00:00)

Transit 2A - Pass Details

Date: 29 September 2022
Orbit: 598 x 959 km, 66.7° (Epoch: 06 December)

Event Time Altitude Azimuth Distance (km) Brightness Sun altitude
Rises 14:56:11 0° 325° (NW) 3,014 8.6 42.1°
Reaches altitude 10° 14:58:30 10° 318° (NW) 2,145 8.0 42.5°
Maximum altitude 15:03:05 42° 248° (WSW) 1,049 7.0 43.2°
Drops below altitude 10° 15:08:07 10° 179° (S) 2,356 9.2 43.9°
Sets 15:10:46 0° 172° (S) 3,346 9.9 44.3°
